カタログに戻る

THOR ABLESTAR DEB

運用中LEO
NORAD 141·DEBRIS·🇺🇸 United States

打ち上げ Jun 29, 1961 から Cape Canaveral Space Force Station

Loading…

次のパス (今後24時間)

TLE

最新Source: Space-Track

元期: Sep 14, 2026, 04:40 UTC

1 00141U 61015AB  26257.19460811  .00000142  00000-0  17881-3 0  9996
2 00141  66.5885 185.5916 0055336 341.1399  18.7626 13.89063206284184

AllMySatでTHOR ABLESTAR DEBをリアルタイム追跡

Download on the App Store